Zurück zum Katalog

ASTRA 1F

AktivKommunikationGEO
NORAD 23842·PAYLOAD·🇱🇺 Luxembourg

Gestartet Apr 8, 1996 von Baikonur Cosmodrome

Loading…

TLE

AktuellSource: Space-Track

Epoche: Sep 14, 2026, 12:30 UTC

1 23842U 96021A   26257.52148868 -.00000021  00000-0  00000-0 0  9995
2 23842   5.6470  72.7506 0005199 131.3380  66.0715  0.99117507 52981

Verfolge ASTRA 1F in Echtzeit mit AllMySat

Download on the App Store